Photometre #851[NE_1.6_Dp] Glasgow_MO AOT

File : 20220925_851.hum

25/09/2022,07:12:38,TEMP=11.6,BA=5.64,STAT.A,ExtBa=12.20
25/09/2022,07:17:19,TEMP=11.7,BA=5.64,STAT.A,ExtBa=12.10
25/09/2022,07:22:49,TEMP=11.8,BA=5.64,STAT.A,ExtBa=12.10
25/09/2022,07:29:22,TEMP=11.8,BA=5.64,STAT.A,ExtBa=12.10
25/09/2022,07:37:18,TEMP=11.8,BA=5.64,STAT.A,ExtBa=12.10
25/09/2022,07:47:10,TEMP=11.9,BA=5.64,STAT.A,ExtBa=12.10
25/09/2022,07:59:47,TEMP=12.0,BA=5.64,STAT.B,ExtBa=12.10
25/09/2022,08:05:52,TEMP=12.1,BA=5.64,STAT.A,ExtBa=12.10
25/09/2022,08:12:45,TEMP=12.2,BA=5.64,STAT.A,ExtBa=12.10
25/09/2022,08:20:36,TEMP=12.2,BA=5.64,STAT.A,ExtBa=12.10
25/09/2022,08:29:37,TEMP=12.3,BA=5.64,STAT.A,ExtBa=12.10
25/09/2022,08:40:09,TEMP=12.5,BA=5.64,STAT.C,ExtBa=12.10
25/09/2022,08:51:24,TEMP=12.7,BA=5.64,STAT.D,ExtBa=12.10
25/09/2022,08:53:16,TEMP=13.2,BA=5.64,STAT.A,ExtBa=12.10
25/09/2022,09:06:24,TEMP=13.1,BA=5.64,STAT.D,ExtBa=12.10
25/09/2022,09:08:22,TEMP=13.5,BA=5.64,STAT.A,ExtBa=12.10
25/09/2022,09:10:33,TEMP=13.6,BA=5.64,STAT.F,ExtBa=12.10
25/09/2022,09:21:24,TEMP=13.5,BA=5.64,STAT.D,ExtBa=12.10
25/09/2022,09:25:31,TEMP=13.8,BA=5.64,STAT.D,ExtBa=12.10
25/09/2022,09:36:24,TEMP=13.9,BA=5.64,STAT.D,ExtBa=12.10
25/09/2022,09:40:31,TEMP=14.0,BA=5.64,STAT.D,ExtBa=12.10
25/09/2022,09:51:24,TEMP=14.1,BA=5.64,STAT.D,ExtBa=12.10
25/09/2022,09:55:31,TEMP=14.3,BA=5.64,STAT.D,ExtBa=12.10
25/09/2022,10:06:24,TEMP=14.6,BA=5.64,STAT.D,ExtBa=12.10
25/09/2022,10:10:33,TEMP=14.8,BA=5.64,STAT.F,ExtBa=12.10
25/09/2022,10:25:31,TEMP=15.4,BA=5.64,STAT.D,ExtBa=12.00
25/09/2022,10:36:24,TEMP=15.6,BA=5.64,STAT.D,ExtBa=12.10
25/09/2022,10:39:24,TEMP=16.1,BA=5.64,STAT.D,ExtBa=12.00
25/09/2022,10:41:33,TEMP=16.6,BA=5.60,STAT.D,ExtBa=12.00
25/09/2022,10:45:24,TEMP=16.5,BA=5.60,STAT.D,ExtBa=12.00
25/09/2022,10:48:24,TEMP=16.6,BA=5.60,STAT.D,ExtBa=12.00
25/09/2022,10:55:31,TEMP=16.1,BA=5.64,STAT.D,ExtBa=12.00
25/09/2022,11:06:24,TEMP=15.2,BA=5.64,STAT.D,ExtBa=12.10
25/09/2022,11:10:33,TEMP=15.1,BA=5.64,STAT.F,ExtBa=12.10
25/09/2022,11:21:24,TEMP=14.5,BA=5.64,STAT.D,ExtBa=12.10
25/09/2022,11:25:31,TEMP=14.6,BA=5.64,STAT.D,ExtBa=12.10
25/09/2022,11:36:24,TEMP=14.5,BA=5.64,STAT.D,ExtBa=12.10
25/09/2022,11:40:31,TEMP=14.8,BA=5.64,STAT.D,ExtBa=12.10
25/09/2022,11:51:24,TEMP=15.0,BA=5.64,STAT.D,ExtBa=12.10
25/09/2022,11:54:24,TEMP=15.3,BA=5.64,STAT.D,ExtBa=12.10
25/09/2022,11:56:21,TEMP=15.7,BA=5.64,STAT.D,ExtBa=12.00
25/09/2022,12:09:24,TEMP=15.3,BA=5.64,STAT.D,ExtBa=12.10
25/09/2022,12:11:22,TEMP=15.7,BA=5.64,STAT.F,ExtBa=12.10
25/09/2022,12:24:24,TEMP=15.5,BA=5.64,STAT.D,ExtBa=12.10
25/09/2022,12:26:20,TEMP=15.9,BA=5.64,STAT.D,ExtBa=12.10
25/09/2022,12:39:24,TEMP=15.5,BA=5.64,STAT.D,ExtBa=12.10
25/09/2022,12:41:20,TEMP=15.9,BA=5.64,STAT.D,ExtBa=12.10
25/09/2022,12:54:24,TEMP=15.2,BA=5.64,STAT.D,ExtBa=12.10
25/09/2022,12:56:20,TEMP=15.4,BA=5.64,STAT.D,ExtBa=12.10
25/09/2022,13:09:24,TEMP=14.9,BA=5.64,STAT.D,ExtBa=12.10
25/09/2022,13:11:22,TEMP=15.4,BA=5.64,STAT.F,ExtBa=12.10
25/09/2022,13:24:24,TEMP=14.5,BA=5.64,STAT.D,ExtBa=12.10
25/09/2022,13:26:21,TEMP=15.0,BA=5.64,STAT.D,ExtBa=12.00
25/09/2022,13:39:24,TEMP=14.8,BA=5.64,STAT.D,ExtBa=12.10
25/09/2022,13:41:21,TEMP=15.1,BA=5.64,STAT.D,ExtBa=12.10
25/09/2022,13:51:24,TEMP=14.4,BA=5.64,STAT.D,ExtBa=12.10
25/09/2022,13:55:31,TEMP=14.5,BA=5.64,STAT.D,ExtBa=12.10
25/09/2022,14:06:24,TEMP=14.5,BA=5.64,STAT.D,ExtBa=12.10
25/09/2022,14:10:33,TEMP=14.7,BA=5.64,STAT.F,ExtBa=12.10
25/09/2022,14:21:24,TEMP=14.6,BA=5.64,STAT.D,ExtBa=12.10
25/09/2022,14:25:31,TEMP=14.7,BA=5.64,STAT.D,ExtBa=12.10
25/09/2022,14:36:24,TEMP=14.2,BA=5.64,STAT.D,ExtBa=12.10
25/09/2022,14:40:31,TEMP=14.2,BA=5.64,STAT.D,ExtBa=12.10
25/09/2022,14:51:24,TEMP=14.0,BA=5.64,STAT.D,ExtBa=12.10
25/09/2022,14:55:31,TEMP=14.0,BA=5.64,STAT.D,ExtBa=12.10
25/09/2022,15:06:24,TEMP=13.8,BA=5.64,STAT.D,ExtBa=12.10
25/09/2022,15:10:32,TEMP=13.9,BA=5.64,STAT.F,ExtBa=12.10
25/09/2022,15:13:10,TEMP=14.0,BA=5.64,STAT.A,ExtBa=12.10
25/09/2022,15:24:24,TEMP=13.7,BA=5.64,STAT.D,ExtBa=12.10
25/09/2022,15:28:23,TEMP=13.9,BA=5.64,STAT.A,ExtBa=12.10
25/09/2022,15:39:24,TEMP=13.9,BA=5.60,STAT.D,ExtBa=12.10
25/09/2022,15:41:22,TEMP=14.3,BA=5.64,STAT.C,ExtBa=12.10
25/09/2022,15:51:27,TEMP=14.0,BA=5.64,STAT.A,ExtBa=12.10
25/09/2022,16:00:28,TEMP=13.7,BA=5.64,STAT.A,ExtBa=12.10
25/09/2022,16:08:19,TEMP=13.6,BA=5.64,STAT.A,ExtBa=12.10
25/09/2022,16:15:12,TEMP=13.5,BA=5.60,STAT.A,ExtBa=12.10
25/09/2022,16:21:17,TEMP=13.4,BA=5.64,STAT.B,ExtBa=12.10
25/09/2022,16:33:23,TEMP=13.1,BA=5.64,STAT.D,ExtBa=12.10
25/09/2022,16:35:23,TEMP=13.4,BA=5.64,STAT.A,ExtBa=12.10
25/09/2022,16:43:46,TEMP=12.5,BA=5.64,STAT.A,ExtBa=12.10
25/09/2022,16:51:42,TEMP=12.3,BA=5.64,STAT.A,ExtBa=12.10
25/09/2022,16:58:15,TEMP=12.2,BA=5.64,STAT.A,ExtBa=12.10
25/09/2022,17:03:45,TEMP=12.3,BA=5.64,STAT.A,ExtBa=12.10
25/09/2022,17:08:26,TEMP=12.3,BA=5.64,STAT.A,ExtBa=12.10